FW6805 Weather Reports


time (UTC)temp
F
wind
direction
speed
knots
gust
knots
rain 1hr
in
rain 24hr
in
rain mn
in
humidity
%
barometer
mb
20260504050535 56 268 7.8 10.4 0.00 0.00 0.00 59 925.3
20260504045528 57 292 7.0 10.4 0.00 0.00 0.00 51 925.2
20260504044520 59 283 12.2 25.2 0.00 0.00 0.00 48 925.3
20260504043545 58 300 10.4 16.5 0.00 0.00 0.00 43 925.2
20260504042557 58 292 5.2 7.0 0.00 0.00 0.00 46 925.0
20260504041531 58 266 5.2 8.7 0.00 0.00 0.00 46 925.0
20260504040521 58 275 5.2 9.6 0.00 0.00 0.00 43 925.2
20260504035547 58 261 6.1 8.7 0.00 0.00 0.00 47 925.3
20260504034538 59 265 4.3 8.7 0.00 0.00 0.00 42 925.4
20260504033551 57 236 4.3 7.0 0.00 0.00 0.00 48 925.5
20260504032523 58 258 4.3 6.1 0.00 0.00 0.00 45 925.6
20260504031548 58 185 1.7 6.1 0.00 0.00 0.00 42 925.7
20260504030539 59 198 1.7 3.5 0.00 0.00 0.00 51 925.8
20260504025546 60 190 2.6 3.5 0.00 0.00 0.00 45 925.9
20260504024603 60 261 5.2 7.0 0.00 0.00 0.00 46 926.1
20260504023532 59 272 4.3 6.1 0.00 0.00 0.00 48 926.2
20260504022543 59 261 5.2 7.0 0.00 0.00 0.00 53 926.2
20260504021535 58 272 3.5 4.3 0.00 0.00 0.00 58 926.1
20260504020526 61 247 4.3 6.1 0.00 0.00 0.00 52 926.0
20260504015541 63 268 4.3 7.0 0.00 0.00 0.00 47 926.0
20260504014546 65 270 5.2 8.7 0.00 0.00 0.00 47 926.1
20260504013538 67 223 3.5 7.0 0.00 0.00 0.00 38 926.2
20260504012529 68 241 8.7 15.6 0.00 0.00 0.00 36 926.3
20260504011520 69 232 9.6 13.9 0.00 0.00 0.00 35 926.6
20260504005537 69 239 4.3 10.4 0.00 0.00 0.00 35 926.8
20260504004530 69 236 5.2 12.2 0.00 0.00 0.00 36 927.0
20260503222046 69 281 15.6 21.7 0.00 0.00 0.00 35 929.3
20260503221017 70 275 14.8 20.0 0.00 0.00 0.00 32 929.5
20260503215035 68 275 11.3 16.5 0.00 0.00 0.00 34 929.8
20260503214028 68 286 14.8 22.6 0.00 0.00 0.00 35 929.9
20260503213020 68 265 11.3 15.6 0.00 0.00 0.00 38 930.1
20260503212105 69 286 12.2 18.2 0.00 0.00 0.00 30 930.4
20260503211036 68 289 13.9 20.0 0.00 0.00 0.00 35 930.6
20260503210049 69 284 13.0 19.1 0.00 0.00 0.00 33 930.8
20260503205021 71 264 8.7 13.9 0.00 0.00 0.00 29 931.0
20260503204106 70 275 15.6 23.5 0.00 0.00 0.00 33 931.2
20260503203038 68 278 12.2 20.0 0.00 0.00 0.00 34 931.4
20260503202031 69 290 12.2 20.0 0.00 0.00 0.00 37 931.7
20260503201043 69 279 9.6 16.5 0.00 0.00 0.00 33 931.9
20260503200048 70 273 11.3 16.5 0.00 0.00 0.00 31 932.0
20260503195100 69 274 12.2 21.7 0.00 0.00 0.00 35 932.2
20260503194213 68 288 11.3 16.5 0.00 0.00 0.00 33 932.5
20260503193024 67 290 13.9 22.6 0.00 0.00 0.00 35 932.7
20260503192018 66 280 13.0 18.2 0.00 0.00 0.00 36 933.0
20260503191041 67 288 16.5 21.7 0.00 0.00 0.00 34 933.2
20260503190035 66 275 13.0 20.0 0.00 0.00 0.00 35 933.4
20260503185026 66 281 12.2 16.5 0.00 0.00 0.00 38 933.7
20260503184019 66 285 11.3 16.5 0.00 0.00 0.00 34 933.9
20260503183043 66 279 14.8 20.0 0.00 0.00 0.00 35 934.3
20260503182057 66 289 12.2 18.2 0.00 0.00 0.00 34 934.5
20260503181028 66 287 13.0 20.0 0.00 0.00 0.00 37 934.6
20260503180021 65 289 11.3 18.2 0.00 0.00 0.00 36 934.8
20260503175044 66 310 7.0 9.6 0.00 0.00 0.00 35 935.0
20260503174038 66 281 8.7 15.6 0.00 0.00 0.00 34 935.3
20260503173029 66 274 7.0 12.2 0.00 0.00 0.00 36 935.5
20260503172023 66 271 7.0 10.4 0.00 0.00 0.00 33 935.7
20260503171050 65 272 8.7 12.2 0.00 0.00 0.00 34 935.9
20260503131024 39 246 3.5 6.1 0.00 0.00 0.00 77 938.6
20260503081020 45 226 2.6 4.3 0.00 0.00 0.00 57 938.6
20260503072047 48 31 5.2 7.0 0.00 0.00 0.00 52 938.3
20260503071119 48 27 5.2 8.7 0.00 0.00 0.00 52 938.4